• en France
  • Liste des pays
  • À 7 jours
  • Température de l'eau
  • Carte satellitaire
  • Carte météo
  • Widgets météo
  • user-avatar
    Se connecter

    Météo par heure à Dinajpur

    Ce jour, 18 Novembre, Samedi

    Heure Température Précipitation Vent Pression Humidité
    00:00 +25°C° 0 mm 1 m/s 756 mmHg 78%
    01:00 +24°C° 0 mm 1 m/s 756 mmHg 80%
    02:00 +24°C° 0 mm 1 m/s 755 mmHg 81%
    03:00 +23°C° 0 mm 1 m/s 755 mmHg 83%
    04:00 +23°C° 0 mm 1 m/s 755 mmHg 83%
    05:00 +23°C° 0 mm 2 m/s 755 mmHg 84%
    06:00 +23°C° 0 mm 2 m/s 756 mmHg 84%
    07:00 +24°C° 0 mm 2 m/s 756 mmHg 80%
    08:00 +25°C° 0 mm 2 m/s 756 mmHg 75%
    09:00 +26°C° 0 mm 2 m/s 757 mmHg 71%
    10:00 +27°C° 0 mm 2 m/s 757 mmHg 66%
    11:00 +29°C° 0 mm 2 m/s 756 mmHg 61%
    12:00 +30°C° 0 mm 2 m/s 756 mmHg 56%
    13:00 +31°C° 0 mm 2 m/s 755 mmHg 54%
    14:00 +31°C° 0 mm 1 m/s 755 mmHg 51%
    15:00 +31°C° 0 mm 1 m/s 754 mmHg 48%
    16:00 +30°C° 0 mm 1 m/s 754 mmHg 52%
    17:00 +29°C° 0 mm 1 m/s 754 mmHg 56%
    18:00 +28°C° 0 mm 1 m/s 754 mmHg 59%
    19:00 +27°C° 0 mm 1 m/s 755 mmHg 60%
    20:00 +27°C° 0 mm 1 m/s 755 mmHg 62%
    21:00 +26°C° 0 mm 1 m/s 756 mmHg 63%
    22:00 +26°C° 0 mm 1 m/s 756 mmHg 64%
    23:00 +25°C° 0 mm 1 m/s 756 mmHg 65%

    Demain, 19 Novembre, Dimanche

    Heure Température Précipitation Vent Pression Humidité
    00:00 +25°C° 0 mm 1 m/s 756 mmHg 66%
    01:00 +25°C° 0 mm 1 m/s 755 mmHg 67%
    02:00 +24°C° 0 mm 1 m/s 755 mmHg 69%
    03:00 +24°C° 0 mm 1 m/s 755 mmHg 70%
    04:00 +24°C° 0 mm 1 m/s 755 mmHg 72%
    05:00 +23°C° 0 mm 1 m/s 755 mmHg 73%
    06:00 +23°C° 0 mm 1 m/s 755 mmHg 75%
    07:00 +24°C° 0 mm 1 m/s 756 mmHg 71%
    08:00 +26°C° 0 mm 1 m/s 757 mmHg 66%
    09:00 +27°C° 0 mm 1 m/s 757 mmHg 62%
    10:00 +28°C° 0 mm 1 m/s 757 mmHg 57%
    11:00 +30°C° 0 mm 1 m/s 757 mmHg 51%
    12:00 +31°C° 0 mm 2 m/s 757 mmHg 46%
    13:00 +31°C° 0 mm 2 m/s 756 mmHg 44%
    14:00 +32°C° 0 mm 2 m/s 755 mmHg 42%
    15:00 +32°C° 0 mm 2 m/s 755 mmHg 40%
    16:00 +30°C° 0 mm 2 m/s 755 mmHg 44%
    17:00 +29°C° 0 mm 2 m/s 755 mmHg 48%
    18:00 +27°C° 0 mm 1 m/s 755 mmHg 53%
    19:00 +27°C° 0 mm 1 m/s 755 mmHg 54%
    20:00 +26°C° 0 mm 1 m/s 756 mmHg 56%
    21:00 +26°C° 0 mm 1 m/s 756 mmHg 57%
    22:00 +25°C° 0 mm 1 m/s 756 mmHg 58%
    23:00 +25°C° 0 mm 1 m/s 756 mmHg 60%

    Après-demain, 20 Novembre, Lundi

    Heure Température Précipitation Vent Pression Humidité
    00:00 +22°C° 0 mm 0 m/s 756 mmHg 61%
    01:00 +22°C° 0 mm 0 m/s 756 mmHg 63%
    02:00 +21°C° 0 mm 0 m/s 756 mmHg 64%
    03:00 +21°C° 0 mm 0 m/s 755 mmHg 66%
    04:00 +21°C° 0 mm 0 m/s 755 mmHg 67%
    05:00 +20°C° 0 mm 0 m/s 756 mmHg 69%
    06:00 +20°C° 0 mm 0 m/s 756 mmHg 70%
    07:00 +23°C° 0 mm 1 m/s 756 mmHg 66%
    08:00 +25°C° 0 mm 1 m/s 757 mmHg 63%
    09:00 +26°C° 0 mm 1 m/s 758 mmHg 59%
    10:00 +27°C° 0 mm 1 m/s 758 mmHg 55%
    11:00 +29°C° 0 mm 2 m/s 757 mmHg 50%
    12:00 +30°C° 0 mm 2 m/s 757 mmHg 45%
    13:00 +30°C° 0 mm 2 m/s 756 mmHg 43%
    14:00 +31°C° 0 mm 3 m/s 755 mmHg 40%
    15:00 +31°C° 0 mm 3 m/s 755 mmHg 38%
    16:00 +29°C° 0 mm 3 m/s 755 mmHg 42%
    17:00 +28°C° 0 mm 2 m/s 755 mmHg 45%
    18:00 +26°C° 0 mm 2 m/s 755 mmHg 48%
    19:00 +25°C° 0 mm 2 m/s 755 mmHg 49%
    20:00 +25°C° 0 mm 1 m/s 756 mmHg 50%
    21:00 +24°C° 0 mm 1 m/s 756 mmHg 50%
    22:00 +24°C° 0 mm 1 m/s 756 mmHg 52%
    23:00 +23°C° 0 mm 1 m/s 756 mmHg 53%

    21 Novembre, Mardi

    Heure Température Précipitation Vent Pression Humidité
    00:00 +23°C° 0 mm 1 m/s 756 mmHg 55%
    01:00 +23°C° 0 mm 1 m/s 756 mmHg 57%
    02:00 +22°C° 0 mm 1 m/s 756 mmHg 59%
    03:00 +22°C° 0 mm 1 m/s 755 mmHg 62%
    04:00 +21°C° 0 mm 1 m/s 756 mmHg 63%
    05:00 +21°C° 0 mm 1 m/s 756 mmHg 65%
    06:00 +20°C° 0 mm 1 m/s 756 mmHg 67%
    07:00 +21°C° 0 mm 2 m/s 757 mmHg 63%
    08:00 +23°C° 0 mm 2 m/s 758 mmHg 59%
    09:00 +24°C° 0 mm 2 m/s 759 mmHg 55%
    10:00 +26°C° 0 mm 3 m/s 758 mmHg 49%
    11:00 +27°C° 0 mm 3 m/s 758 mmHg 44%
    12:00 +29°C° 0 mm 3 m/s 757 mmHg 39%
    13:00 +29°C° 0 mm 3 m/s 756 mmHg 37%
    14:00 +29°C° 0 mm 4 m/s 756 mmHg 35%
    15:00 +29°C° 0 mm 4 m/s 755 mmHg 34%
    16:00 +28°C° 0 mm 3 m/s 755 mmHg 36%
    17:00 +26°C° 0 mm 3 m/s 755 mmHg 39%
    18:00 +24°C° 0 mm 3 m/s 755 mmHg 42%
    19:00 +23°C° 0 mm 2 m/s 755 mmHg 41%
    20:00 +23°C° 0 mm 2 m/s 756 mmHg 41%
    21:00 +21°C° 0 mm 2 m/s 756 mmHg 40%
    22:00 +20°C° 0 mm 2 m/s 756 mmHg 40%
    23:00 +20°C° 0 mm 2 m/s 756 mmHg 41%

    22 Novembre, Mercredi

    Heure Température Précipitation Vent Pression Humidité
    00:00 +19°C° 0 mm 2 m/s 756 mmHg 41%
    01:00 +19°C° 0 mm 2 m/s 756 mmHg 42%
    02:00 +18°C° 0 mm 2 m/s 756 mmHg 44%
    03:00 +18°C° 0 mm 2 m/s 755 mmHg 45%
    04:00 +18°C° 0 mm 2 m/s 756 mmHg 47%
    05:00 +17°C° 0 mm 2 m/s 756 mmHg 49%
    06:00 +17°C° 0 mm 2 m/s 756 mmHg 50%
    07:00 +19°C° 0 mm 2 m/s 757 mmHg 50%
    08:00 +20°C° 0 mm 2 m/s 757 mmHg 50%
    09:00 +23°C° 0 mm 2 m/s 758 mmHg 50%
    10:00 +24°C° 0 mm 2 m/s 757 mmHg 47%
    11:00 +26°C° 0 mm 2 m/s 757 mmHg 43%
    12:00 +28°C° 0 mm 2 m/s 757 mmHg 40%
    13:00 +28°C° 0 mm 2 m/s 756 mmHg 38%
    14:00 +28°C° 0 mm 2 m/s 755 mmHg 36%
    15:00 +29°C° 0 mm 2 m/s 754 mmHg 34%
    16:00 +27°C° 0 mm 2 m/s 755 mmHg 37%
    17:00 +25°C° 0 mm 2 m/s 755 mmHg 41%
    18:00 +23°C° 0 mm 2 m/s 755 mmHg 44%
    19:00 +23°C° 0 mm 2 m/s 755 mmHg 44%
    20:00 +21°C° 0 mm 2 m/s 756 mmHg 44%
    21:00 +20°C° 0 mm 2 m/s 756 mmHg 45%
    22:00 +20°C° 0 mm 2 m/s 756 mmHg 46%
    23:00 +20°C° 0 mm 2 m/s 756 mmHg 47%

    23 Novembre, Jeudi

    Heure Température Précipitation Vent Pression Humidité
    00:00 +19°C° 0 mm 2 m/s 756 mmHg 48%
    01:00 +19°C° 0 mm 2 m/s 756 mmHg 49%
    02:00 +18°C° 0 mm 2 m/s 756 mmHg 50%
    03:00 +18°C° 0 mm 2 m/s 756 mmHg 52%
    04:00 +18°C° 0 mm 2 m/s 756 mmHg 53%
    05:00 +18°C° 0 mm 1 m/s 756 mmHg 55%
    06:00 +18°C° 0 mm 1 m/s 756 mmHg 56%
    07:00 +19°C° 0 mm 1 m/s 757 mmHg 54%
    08:00 +20°C° 0 mm 2 m/s 757 mmHg 52%
    09:00 +21°C° 0 mm 2 m/s 758 mmHg 50%
    10:00 +24°C° 0 mm 2 m/s 758 mmHg 47%
    11:00 +26°C° 0 mm 2 m/s 757 mmHg 44%
    12:00 +27°C° 0 mm 2 m/s 757 mmHg 40%
    13:00 +28°C° 0 mm 2 m/s 756 mmHg 39%
    14:00 +28°C° 0 mm 2 m/s 756 mmHg 37%
    15:00 +28°C° 0 mm 2 m/s 755 mmHg 35%
    16:00 +27°C° 0 mm 2 m/s 755 mmHg 39%
    17:00 +25°C° 0 mm 2 m/s 755 mmHg 42%
    18:00 +23°C° 0 mm 2 m/s 755 mmHg 46%
    19:00 +23°C° 0 mm 2 m/s 756 mmHg 46%
    20:00 +21°C° 0 mm 2 m/s 756 mmHg 46%
    21:00 +20°C° 0 mm 2 m/s 757 mmHg 46%
    22:00 +20°C° 0 mm 2 m/s 757 mmHg 47%
    23:00 +19°C° 0 mm 2 m/s 756 mmHg 47%
    Voir plus